User: anonymous   Login
Location: Breitenfeld
(46.8500°N, 15.6333°E)
Time: 10:02:15
(UTC+00:00)
Language:

MOS 1 Rocket - Orbit

View from above orbital plane
View from above orbital plane
View from above satellite
View from above satellite

Ground track
Ground track

The orbit data is extracted from the following two-line orbital elements,

1 17528U 87018B   20184.84487486 +.00000034 +00000-0 +16496-4 0  9998
2 17528 097.4147 032.2735 0152797 055.3692 306.1804 14.50989923740452
Epoch (UTC): 02 July 2020 20:16:37
Eccentricity: 0.0152797
inclination: 97.4147°
perigee height: 614 km
apogee height: 831 km
right ascension of ascending node: 32.2735°
argument of perigee: 55.3692°
revolutions per day: 14.50989923
mean anomaly at epoch: 306.1804°
orbit number at epoch: 74045

The dashed part of the orbit path shows where the satellite is in the earth's shadow,  

DLR